Location: Tabor
(49.4170°N, 14.6670°E)
Time: 10:31:57
(UTC+02:00)

ISS - Pass Details

Date: 22 May 2021
Orbit: 417 x 422 km, 51.6° (Epoch: 13 June)

Event Time Altitude Azimuth Distance (km) Brightness Sun altitude
Rises 01:21:44 0° 288° (WNW) 2,370 0.2 -20.0°
Reaches altitude 10° 01:23:59 10° 277° (W) 1,504 -1.0 -20.0°
Enters shadow 01:24:15 12° 275° (W) 1,406 -1.1 -20.0°
